{"data":{"norad_id":58482,"intl_designator":"2023-186K","name":"STARLINK-30997","alt_names":[],"object_type":"PAYLOAD","status":"ACTIVE","operator":null,"country":"US","launch_date":"2023-12-03","launch_site_code":"AFETR","launch_vehicle":null,"mission":null,"orbit_class":"UNKNOWN","rcs_meters":null,"size_class":null,"mass_kg":null,"dimensions":null,"purposes":["comms"],"wikipedia_slug":null,"has_3d_model":false,"image_url":null,"decayed_at":null,"tle_current":{"epoch":"2026-05-24T20:29:33.204192Z","epoch_age_seconds":83562,"freshness":"FRESH","line1":"1 58482U 23186K   26144.85385653  .00012477  00000+0  46205-3 0  9997","line2":"2 58482  43.0005 353.5571 0001345 268.5898  91.4799 15.27588839137544","mean_motion":15.27588839,"eccentricity":0.0001345,"inclination_deg":43.0005,"raan_deg":353.5571,"arg_perigee_deg":268.5898,"mean_anomaly_deg":91.4799,"bstar":0.00046205,"rev_number":13754,"period_min":94.266203263351,"perigee_km":482.09980305136,"apogee_km":483.94545499156,"semimajor_km":6861.1596290215,"source":"CELESTRAK","updated_at":"2026-05-25T13:38:18.651602Z"}}}